This demonstration page uses our WeatherBlox Daily Observations layout. Learn more.

Left ArrowRight Arrow

40.92501, -98.34201

Hourly Observations for February 17, 2022

Temp ( °F °C ) Dew Point ( °F °C ) Humidity (%) Winds ( mph kmh ) Pressure ( in mb ) Visibility ( mi km ) Precip ( " mm )
12:53 am 00:53 Cloudy 24 -4.4 9 -12.8 52 52 N 18 30 30.24 1024 10 16 0.00 0.00
1:53 am 01:53 Cloudy 22 -5.6 4 -15.6 46 46 N 23 37 30.22 1023 10 16 0.00 0.00
2:53 am 02:53 Cloudy 20 -6.7 1 -17.2 43 43 N 23 37 30.30 1026 10 16 0.00 0.00
3:53 am 03:53 Cloudy 18 -7.8 -3 -19.4 39 39 N 22 35 30.32 1027 10 16 0.00 0.00
4:53 am 04:53 Mostly Cloudy 17 -8.3 -2 -18.9 43 43 N 21 33 30.32 1027 10 16 0.00 0.00
5:53 am 05:53 Mostly Cloudy 15 -9.4 -5 -20.6 40 40 N 24 39 30.35 1028 10 16 0.00 0.00
6:53 am 06:53 Clear 13 -10.6 -7 -21.7 40 40 N 18 30 30.39 1029 10 16 0.00 0.00
7:53 am 07:53 Sunny 12 -11.1 -5 -20.6 46 46 N 16 26 30.40 1029 10 16 0.00 0.00
8:53 am 08:53 Sunny 13 -10.6 -6 -21.1 42 42 N 15 24 30.41 1030 10 16 0.00 0.00
9:53 am 09:53 Sunny 14 -10 -7 -21.7 38 38 N 18 30 30.41 1030 10 16 0.00 0.00
10:53 am 10:53 Sunny 17 -8.3 -8 -22.2 32 32 NNW 14 22 30.42 1030 10 16 0.00 0.00
11:53 am 11:53 Sunny 21 -6.1 -9 -22.8 26 26 NNW 14 22 30.41 1030 10 16 0.00 0.00
12:53 pm 12:53 Sunny 24 -4.4 -10 -23.3 21 21 NNW 12 19 30.37 1028 10 16 0.00 0.00
1:53 pm 13:53 Sunny 26 -3.3 -10 -23.3 20 20 NNW 9 15 30.34 1027 10 16 0.00 0.00
2:53 pm 14:53 Sunny 30 -1.1 -10 -23.3 17 17 WNW 7 11 30.30 1026 10 16 0.00 0.00
3:53 pm 15:53 Sunny 32 0 -8 -22.2 17 17 W 8 13 30.28 1026 10 16 0.00 0.00
4:53 pm 16:53 Sunny 33 0.6 -6 -21.1 18 18 WSW 9 15 30.26 1025 10 16 0.00 0.00
5:53 pm 17:53 Sunny 30 -1.1 -6 -21.1 20 20 SW 10 17 30.25 1024 10 16 0.00 0.00
6:53 pm 18:53 Clear 25 -3.9 -5 -20.6 26 26 SSW 7 11 30.26 1025 10 16 0.00 0.00
7:53 pm 19:53 Clear 27 -2.8 -5 -20.6 24 24 SSW 12 19 30.24 1024 10 16 0.00 0.00
8:53 pm 20:53 Clear 27 -2.8 -4 -20 25 25 SW 16 26 30.23 1024 10 16 0.00 0.00
9:53 pm 21:53 Clear 27 -2.8 -4 -20 25 25 SW 17 28 30.21 1023 10 16 0.00 0.00
10:53 pm 22:53 Clear 27 -2.8 -3 -19.4 27 27 SW 20 31 30.20 1023 10 16 0.00 0.00
11:53 pm 23:53 Clear 27 -2.8 -3 -19.4 27 27 SW 20 31 30.18 1022 10 16 0.00 0.00

Powered by AerisWeather